This demonstration page uses our WeatherBlox Daily Observations layout. Learn more.

Left ArrowRight Arrow

Hourly Observations for August 6, 2016

Temp ( °F °C ) Dew Point ( °F °C ) Humidity (%) Winds ( mph kmh ) Pressure ( in mb ) Visibility ( mi km ) Precip ( " mm )
12:18 am 00:18 Cloudy 75 24 72 22 89 89 Calm 29.91 1013 10 16.0934 N/A
12:38 am 00:38 Cloudy 75 24 72 22 89 89 NW 3 6 29.91 1013 10 16.0934 N/A
12:58 am 00:58 Cloudy 75 24 72 22 89 89 Calm 29.91 1013 10 16.0934 N/A
1:19 am 01:19 Cloudy 75 24 72 22 89 89 NNW 7 11 29.91 1013 10 16.0934 N/A
1:38 am 01:38 Cloudy 75 24 72 22 89 89 NNW 6 9 29.91 1013 10 16.0934 N/A
1:58 am 01:58 Cloudy 75 24 72 22 89 89 NW 3 6 29.91 1013 10 16.0934 N/A
2:19 am 02:19 Cloudy 75 24 72 22 89 89 NNW 6 9 29.91 1013 10 16.0934 N/A
2:38 am 02:38 Cloudy 75 24 72 22 89 89 NNW 3 6 29.91 1013 10 16.0934 N/A
2:58 am 02:58 Cloudy 75 24 72 22 89 89 NNW 6 9 29.91 1013 10 16.0934 N/A
3:18 am 03:18 Mostly Cloudy 75 24 72 22 89 89 NNW 6 9 29.91 1013 10 16.0934 N/A
3:38 am 03:38 Cloudy 75 24 72 22 89 89 NNW 7 11 29.91 1013 10 16.0934 N/A
3:59 am 03:59 Cloudy 73 23 70 21 89 89 N 8 13 29.91 1013 10 16.0934 N/A
4:18 am 04:18 Mostly Cloudy 73 23 70 21 89 89 N 8 13 29.91 1013 10 16.0934 N/A
4:38 am 04:38 Partly Cloudy 72 22 70 21 94 94 N 3 6 29.91 1013 10 16.0934 N/A
4:59 am 04:59 Partly Cloudy 72 22 70 21 94 94 N 3 6 29.91 1013 10 16.0934 N/A
5:18 am 05:18 Partly Cloudy 70 21 68 20 94 94 NNE 5 7 29.91 1013 10 16.0934 N/A
5:39 am 05:39 Clear 70 21 68 20 94 94 N 5 7 29.91 1013 10 16.0934 N/A
5:58 am 05:58 Partly Cloudy 68 20 66 19 94 94 N 3 6 29.94 1014 10 16.0934 N/A
6:18 am 06:18 Partly Cloudy 68 20 66 19 94 94 Calm 29.94 1014 10 16.0934 N/A
6:39 am 06:39 Clear 66 19 66 19 100 100 Calm 29.97 1015 10 16.0934 N/A
6:58 am 06:58 Sunny 66 19 66 19 100 100 Calm 29.97 1015 10 16.0934 N/A
7:18 am 07:18 Sunny 66 19 66 19 100 100 Calm 29.97 1015 10 16.0934 N/A
7:39 am 07:39 Partly Cloudy 68 20 66 19 94 94 N 3 6 29.97 1015 10 16.0934 N/A
7:58 am 07:58 Sunny 70 21 66 19 88 88 Calm 29.94 1014 10 16.0934 N/A
8:18 am 08:18 Sunny 72 22 66 19 83 83 NNE 3 6 29.94 1014 10 16.0934 N/A
8:39 am 08:39 Partly Cloudy 72 22 66 19 83 83 Calm 29.94 1014 10 16.0934 N/A
8:58 am 08:58 Mostly Cloudy 73 23 66 19 78 78 NNE 3 6 29.94 1014 10 16.0934 N/A
9:18 am 09:18 Partly Cloudy 72 22 63 17 73 73 NE 5 7 29.94 1014 10 16.0934 N/A
9:39 am 09:39 Partly Cloudy 73 23 64 18 74 74 NE 5 7 29.94 1014 10 16.0934 N/A
9:58 am 09:58 Partly Cloudy 73 23 63 17 69 69 NE 7 11 29.94 1014 10 16.0934 N/A
10:19 am 10:19 Partly Cloudy 73 23 63 17 69 69 NE 7 11 29.94 1014 10 16.0934 N/A
10:38 am 10:38 Sunny 75 24 63 17 65 65 NE 5 7 29.97 1015 10 16.0934 N/A
10:58 am 10:58 Partly Cloudy 75 24 63 17 65 65 NNE 6 9 29.97 1015 10 16.0934 N/A
11:19 am 11:19 Sunny 75 24 63 17 65 65 ENE 6 9 29.97 1015 10 16.0934 N/A
11:38 am 11:38 Sunny 75 24 63 17 65 65 NE 6 9 29.97 1015 10 16.0934 N/A
11:58 am 11:58 Sunny 77 25 63 17 61 61 ENE 7 11 29.97 1015 10 16.0934 N/A
12:19 pm 12:19 Sunny 77 25 63 17 61 61 ENE 5 7 29.97 1015 10 16.0934 N/A
12:38 pm 12:38 Sunny 77 25 61 16 57 57 Calm 29.97 1015 10 16.0934 N/A
12:58 pm 12:58 Sunny 77 25 63 17 61 61 Calm 29.97 1015 10 16.0934 N/A
1:19 pm 13:19 Sunny 77 25 61 16 57 57 NE 3 6 29.97 1015 10 16.0934 N/A
1:38 pm 13:38 Sunny 79 26 63 17 58 58 Calm 29.97 1015 10 16.0934 N/A
1:58 pm 13:58 Sunny 79 26 63 17 58 58 NE 3 6 29.97 1015 10 16.0934 N/A
2:19 pm 14:19 Sunny 79 26 63 17 58 58 NNE 3 6 29.97 1015 10 16.0934 N/A
2:38 pm 14:38 Sunny 79 26 63 17 58 58 N 6 9 29.97 1015 10 16.0934 N/A
2:58 pm 14:58 Sunny 79 26 61 16 54 54 Calm 29.97 1015 10 16.0934 N/A
3:19 pm 15:19 Sunny 79 26 63 17 58 58 Calm 29.97 1015 10 16.0934 N/A
3:38 pm 15:38 Sunny 79 26 63 17 58 58 Calm 29.94 1014 10 16.0934 N/A
3:58 pm 15:58 Sunny 81 27 63 17 54 54 Calm 29.94 1014 10 16.0934 N/A
4:18 pm 16:18 Sunny 81 27 63 17 54 54 N 3 6 29.94 1014 10 16.0934 N/A
4:38 pm 16:38 Sunny 81 27 63 17 54 54 Calm 29.94 1014 10 16.0934 N/A
4:59 pm 16:59 Partly Cloudy 81 27 64 18 58 58 WNW 3 6 29.91 1013 10 16.0934 N/A
5:18 pm 17:18 Partly Cloudy 82 28 63 17 51 51 Calm 29.91 1013 10 16.0934 N/A
5:38 pm 17:38 Sunny 81 27 63 17 54 54 N 3 6 29.91 1013 10 16.0934 N/A
5:59 pm 17:59 Sunny 82 28 63 17 51 51 NNW 7 11 29.91 1013 10 16.0934 N/A
6:18 pm 18:18 Partly Cloudy 82 28 63 17 51 51 N 6 9 29.91 1013 10 16.0934 N/A
6:38 pm 18:38 Sunny 82 28 64 18 55 55 N 8 13 29.91 1013 10 16.0934 N/A
6:59 pm 18:59 Sunny 79 26 66 19 65 65 N 3 6 29.91 1013 10 16.0934 N/A
7:18 pm 19:18 Sunny 81 27 64 18 58 58 NNE 5 7 29.91 1013 10 16.0934 N/A
7:38 pm 19:38 Sunny 81 27 64 18 58 58 Calm 29.91 1013 10 16.0934 N/A
7:59 pm 19:59 Sunny 79 26 66 19 65 65 NNE 3 6 29.91 1013 10 16.0934 N/A
8:18 pm 20:18 Sunny 79 26 66 19 65 65 Calm 29.91 1013 10 16.0934 N/A
8:38 pm 20:38 Sunny 75 24 70 21 83 83 Calm 29.94 1014 10 16.0934 N/A
8:59 pm 20:59 Clear 73 23 68 20 83 83 Calm 29.94 1014 10 16.0934 N/A
9:18 pm 21:18 Clear 72 22 68 20 88 88 Calm 29.94 1014 10 16.0934 N/A
9:38 pm 21:38 Clear 72 22 66 19 83 83 Calm 29.94 1014 10 16.0934 N/A
9:59 pm 21:59 Clear 70 21 66 19 88 88 Calm 29.94 1014 10 16.0934 N/A
10:18 pm 22:18 Clear 68 20 66 19 94 94 Calm 29.97 1015 10 16.0934 N/A
10:38 pm 22:38 Clear 68 20 66 19 94 94 Calm 30 1016 10 16.0934 N/A
10:59 pm 22:59 Clear 70 21 64 18 83 83 N 7 11 29.97 1015 10 16.0934 N/A
11:18 pm 23:18 Clear 70 21 64 18 83 83 N 8 13 29.97 1015 10 16.0934 N/A
11:38 pm 23:38 Clear 68 20 63 17 83 83 N 7 11 30 1016 10 16.0934 N/A
11:59 pm 23:59 Clear 68 20 63 17 83 83 N 6 9 30 1016 10 16.0934 N/A

Powered by AerisWeather